Terminal Aerodrome Forecast
Issued by NWS St Louis, MO

Home | Current Version | Previous Version | Text Only | Print | Product List | Glossary On
Versions: 1 2 3 4 5 6 7 8 9 10 11 12 13 14 15 16 17 18 19 20 21 22 23 24 25 26 27 28 29 30 31
728
FTUS43 KLSX 301920 AAA
TAFSTL
TAF AMD
KSTL 301920Z 3019/3124 15005KT P6SM VCTS SCT050CB BKN250
     FM310100 VRB04KT P6SM SCT100 BKN250
     FM311500 13006KT P6SM SCT040 BKN100
     FM311900 14008KT P6SM VCTS SCT050CB BKN100=

USA.gov is the U.S. government's official web portal to all federal, state and local government web resources and services.